Location: Hamilton
(37.7830°S, 175.2830°E)
Time: 22:31:17
(UTC+13:00)

Cosmos 1606 - Pass Details

Date: 24 January 2019
Orbit: 504 x 529 km, 82.5° (Epoch: 17 October)

Event Time Altitude Azimuth Distance (km) Brightness Sun altitude
Exits shadow 22:04:19 12° 105° (ESE) 1,648 4.9 -15.1°
Drops below altitude 10° 22:05:27 10° 121° (ESE) 1,801 5.3 -15.3°
Enters shadow 23:07:48 -57° 351° (N) 11,302 9.5 -23.8°
